• In Hungary
  • List of Countries
  • For 7 days
  • Water Temperature
  • Satellite Maps
  • Weather Map
  • News
  • Weather Widgets
  • user-avatar
    Login

    Hourly Weather Tongeren

    Today, 17 October, Tuesday

    Time Temperature Precipitation Wind Pressure Humidity
    00:00 +16°C° 0 mm 3 mps 757 mmHg 86%
    01:00 +16°C° 0 mm 2 mps 757 mmHg 88%
    02:00 +15°C° 0 mm 2 mps 757 mmHg 90%
    03:00 +15°C° 0 mm 2 mps 757 mmHg 92%
    04:00 +14°C° 0 mm 2 mps 758 mmHg 93%
    05:00 +14°C° 0 mm 2 mps 758 mmHg 93%
    06:00 +14°C° 0 mm 1 mps 758 mmHg 94%
    07:00 +15°C° 0 mm 1 mps 758 mmHg 88%
    08:00 +18°C° 0 mm 1 mps 758 mmHg 82%
    09:00 +19°C° 0 mm 1 mps 758 mmHg 76%
    10:00 +20°C° 0 mm 1 mps 758 mmHg 73%
    11:00 +21°C° 0 mm 1 mps 758 mmHg 69%
    12:00 +22°C° 0 mm 1 mps 757 mmHg 65%
    13:00 +22°C° 0 mm 1 mps 757 mmHg 66%
    14:00 +22°C° 0 mm 1 mps 756 mmHg 67%
    15:00 +20°C° 0 mm 0 mps 756 mmHg 68%
    16:00 +21°C° 0 mm 1 mps 756 mmHg 73%
    17:00 +19°C° 0 mm 1 mps 755 mmHg 79%
    18:00 +18°C° 0 mm 1 mps 755 mmHg 84%
    19:00 +16°C° 0 mm 1 mps 755 mmHg 85%
    20:00 +16°C° 0 mm 1 mps 755 mmHg 86%
    21:00 +16°C° 0 mm 1 mps 755 mmHg 86%
    22:00 +15°C° 0 mm 1 mps 754 mmHg 88%
    23:00 +15°C° 0 mm 2 mps 754 mmHg 89%

    Tomorrow, 18 October, Wednesday

    Time Temperature Precipitation Wind Pressure Humidity
    00:00 +15°C° 0 mm 2 mps 754 mmHg 90%
    01:00 +14°C° 0 mm 2 mps 753 mmHg 90%
    02:00 +14°C° 0 mm 2 mps 753 mmHg 91%
    03:00 +13°C° 0 mm 2 mps 753 mmHg 91%
    04:00 +13°C° 0 mm 2 mps 752 mmHg 90%
    05:00 +13°C° 0 mm 2 mps 752 mmHg 88%
    06:00 +12°C° 0 mm 2 mps 752 mmHg 87%
    07:00 +14°C° 0 mm 2 mps 752 mmHg 80%
    08:00 +15°C° 0 mm 2 mps 752 mmHg 73%
    09:00 +16°C° 0 mm 3 mps 752 mmHg 66%
    10:00 +18°C° 0 mm 3 mps 752 mmHg 63%
    11:00 +19°C° 0 mm 3 mps 752 mmHg 61%
    12:00 +20°C° 0 mm 3 mps 751 mmHg 59%
    13:00 +20°C° 0 mm 3 mps 751 mmHg 62%
    14:00 +21°C° 0 mm 2 mps 751 mmHg 64%
    15:00 +21°C° 0 mm 2 mps 751 mmHg 67%
    16:00 +19°C° 0 mm 2 mps 751 mmHg 73%
    17:00 +17°C° 0 mm 2 mps 751 mmHg 80%
    18:00 +16°C° 0 mm 2 mps 751 mmHg 86%
    19:00 +15°C° 0 mm 2 mps 751 mmHg 86%
    20:00 +15°C° 0 mm 2 mps 751 mmHg 85%
    21:00 +14°C° 0 mm 2 mps 751 mmHg 85%
    22:00 +14°C° 0 mm 2 mps 751 mmHg 85%
    23:00 +14°C° 0 mm 2 mps 751 mmHg 85%

    Day after tomorrow, 19 October, Thursday

    Time Temperature Precipitation Wind Pressure Humidity
    00:00 +14°C° 0 mm 2 mps 751 mmHg 85%
    01:00 +13°C° 0 mm 2 mps 750 mmHg 86%
    02:00 +13°C° 0 mm 2 mps 750 mmHg 87%
    03:00 +13°C° 0 mm 2 mps 750 mmHg 89%
    04:00 +13°C° 0 mm 2 mps 750 mmHg 88%
    05:00 +12°C° 0 mm 3 mps 750 mmHg 88%
    06:00 +12°C° 0 mm 3 mps 750 mmHg 88%
    07:00 +13°C° 0 mm 3 mps 750 mmHg 82%
    08:00 +15°C° 0 mm 4 mps 750 mmHg 76%
    09:00 +18°C° 0 mm 4 mps 750 mmHg 70%
    10:00 +19°C° 0 mm 5 mps 750 mmHg 68%
    11:00 +20°C° 0 mm 5 mps 749 mmHg 65%
    12:00 +21°C° 0 mm 5 mps 749 mmHg 62%
    13:00 +21°C° 0 mm 5 mps 749 mmHg 64%
    14:00 +21°C° 0 mm 4 mps 749 mmHg 66%
    15:00 +21°C° 0 mm 4 mps 748 mmHg 68%
    16:00 +20°C° 0 mm 4 mps 748 mmHg 71%
    17:00 +19°C° 0 mm 4 mps 748 mmHg 73%
    18:00 +18°C° 0 mm 4 mps 748 mmHg 76%
    19:00 +17°C° 0 mm 5 mps 748 mmHg 74%
    20:00 +16°C° 0 mm 5 mps 748 mmHg 73%
    21:00 +16°C° 0 mm 6 mps 748 mmHg 71%
    22:00 +16°C° 0.1 mm 6 mps 748 mmHg 74%
    23:00 +16°C° 0.1 mm 6 mps 748 mmHg 78%

    20 October, Friday

    Time Temperature Precipitation Wind Pressure Humidity
    00:00 +16°C° 0.1 mm 6 mps 747 mmHg 81%
    01:00 +15°C° 0.4 mm 6 mps 747 mmHg 82%
    02:00 +15°C° 0.4 mm 7 mps 747 mmHg 83%
    03:00 +13°C° 0.4 mm 8 mps 747 mmHg 84%
    04:00 +14°C° 0.1 mm 7 mps 748 mmHg 84%
    05:00 +14°C° 0.1 mm 7 mps 748 mmHg 84%
    06:00 +14°C° 0.1 mm 7 mps 748 mmHg 84%
    07:00 +14°C° 0.1 mm 7 mps 749 mmHg 81%
    08:00 +14°C° 0.1 mm 7 mps 750 mmHg 78%
    09:00 +13°C° 0.1 mm 8 mps 750 mmHg 75%
    10:00 +15°C° 0 mm 7 mps 751 mmHg 71%
    11:00 +16°C° 0 mm 7 mps 751 mmHg 67%
    12:00 +16°C° 0 mm 6 mps 751 mmHg 63%
    13:00 +16°C° 0 mm 6 mps 751 mmHg 66%
    14:00 +16°C° 0 mm 5 mps 751 mmHg 68%
    15:00 +17°C° 0 mm 4 mps 751 mmHg 71%
    16:00 +17°C° 0.1 mm 4 mps 751 mmHg 76%
    17:00 +15°C° 0.1 mm 4 mps 751 mmHg 81%
    18:00 +16°C° 0.1 mm 3 mps 751 mmHg 86%
    19:00 +16°C° 0.2 mm 3 mps 751 mmHg 86%
    20:00 +15°C° 0.2 mm 4 mps 751 mmHg 86%
    21:00 +15°C° 0.2 mm 4 mps 750 mmHg 86%
    22:00 +17°C° 0 mm 4 mps 750 mmHg 84%
    23:00 +16°C° 0 mm 5 mps 750 mmHg 82%

    21 October, Saturday

    Time Temperature Precipitation Wind Pressure Humidity
    00:00 +16°C° 0 mm 5 mps 749 mmHg 80%
    01:00 +16°C° 0.3 mm 6 mps 749 mmHg 82%
    02:00 +16°C° 0.3 mm 6 mps 749 mmHg 84%
    03:00 +16°C° 0.3 mm 6 mps 749 mmHg 86%
    04:00 +16°C° 1.1 mm 6 mps 748 mmHg 87%
    05:00 +16°C° 1.1 mm 6 mps 748 mmHg 88%
    06:00 +16°C° 1.1 mm 6 mps 748 mmHg 90%
    07:00 +16°C° 0.9 mm 6 mps 748 mmHg 89%
    08:00 +16°C° 0.9 mm 6 mps 749 mmHg 88%
    09:00 +16°C° 0.9 mm 6 mps 749 mmHg 87%
    10:00 +16°C° 0.4 mm 6 mps 749 mmHg 82%
    11:00 +16°C° 0.4 mm 7 mps 749 mmHg 77%
    12:00 +15°C° 0.4 mm 7 mps 749 mmHg 72%
    13:00 +15°C° 0 mm 7 mps 749 mmHg 69%
    14:00 +15°C° 0 mm 7 mps 749 mmHg 66%
    15:00 +15°C° 0 mm 6 mps 749 mmHg 64%
    16:00 +14°C° 0 mm 6 mps 750 mmHg 65%
    17:00 +13°C° 0 mm 6 mps 750 mmHg 67%
    18:00 +11°C° 0 mm 6 mps 750 mmHg 68%
    19:00 +11°C° 0 mm 6 mps 750 mmHg 68%
    20:00 +11°C° 0 mm 6 mps 750 mmHg 68%
    21:00 +11°C° 0 mm 6 mps 750 mmHg 69%
    22:00 +10°C° 0 mm 7 mps 750 mmHg 69%
    23:00 +10°C° 0 mm 7 mps 750 mmHg 69%

    22 October, Sunday

    Time Temperature Precipitation Wind Pressure Humidity
    00:00 +9°C° 0 mm 7 mps 750 mmHg 70%
    01:00 +9°C° 0 mm 7 mps 750 mmHg 71%
    02:00 +9°C° 0 mm 7 mps 750 mmHg 73%
    03:00 +8°C° 0 mm 7 mps 750 mmHg 74%
    04:00 +8°C° 0 mm 7 mps 750 mmHg 74%
    05:00 +8°C° 0 mm 7 mps 750 mmHg 75%
    06:00 +8°C° 0 mm 7 mps 750 mmHg 75%
    07:00 +9°C° 0 mm 8 mps 751 mmHg 74%
    08:00 +9°C° 0 mm 8 mps 751 mmHg 73%
    09:00 +9°C° 0 mm 8 mps 751 mmHg 72%
    10:00 +10°C° 0.1 mm 8 mps 751 mmHg 70%
    11:00 +10°C° 0.1 mm 9 mps 751 mmHg 68%
    12:00 +11°C° 0.1 mm 9 mps 751 mmHg 66%
    13:00 +11°C° 0.1 mm 9 mps 751 mmHg 66%
    14:00 +10°C° 0.1 mm 8 mps 751 mmHg 67%
    15:00 +10°C° 0.1 mm 8 mps 751 mmHg 68%
    16:00 +10°C° 0.3 mm 7 mps 751 mmHg 72%
    17:00 +9°C° 0.3 mm 7 mps 752 mmHg 77%
    18:00 +9°C° 0.3 mm 6 mps 752 mmHg 81%
    19:00 +9°C° 0.3 mm 6 mps 752 mmHg 82%
    20:00 +9°C° 0.3 mm 6 mps 753 mmHg 82%
    21:00 +9°C° 0.3 mm 6 mps 753 mmHg 83%
    22:00 +9°C° 0 mm 6 mps 753 mmHg 84%
    23:00 +9°C° 0 mm 6 mps 753 mmHg 85%
    Show more